{"data":{"norad_id":39120,"intl_designator":"2013-011A","name":"SBIRS GEO-2 (USA 241)","alt_names":[],"object_type":"PAYLOAD","status":"ACTIVE","operator":null,"country":"US","launch_date":"2013-03-19","launch_site_code":"AFETR","launch_vehicle":null,"mission":null,"orbit_class":"UNKNOWN","rcs_meters":13.5893,"size_class":null,"mass_kg":null,"dimensions":null,"purposes":["comms"],"wikipedia_slug":null,"has_3d_model":false,"image_url":null,"decayed_at":null,"tle_current":{"epoch":"2026-05-25T03:30:24.933024Z","epoch_age_seconds":69309,"freshness":"FRESH","line1":"1 39120U 13011A   26145.14612191 -.00000289  00000+0  00000+0 0  9992","line2":"2 39120   4.4408  52.4866 0002151   3.8222 189.2349  1.00271501 48302","mean_motion":1.00271501,"eccentricity":0.0002151,"inclination_deg":4.4408,"raan_deg":52.4866,"arg_perigee_deg":3.8222,"mean_anomaly_deg":189.2349,"bstar":0,"rev_number":4830,"period_min":1436.1009715014,"perigee_km":35777.604925918,"apogee_km":35795.744227858,"semimajor_km":42164.811576888,"source":"CELESTRAK","updated_at":"2026-05-25T13:38:13.941518Z"}}}